sat.trackr.live / text

‹ back to catalog

ONEWEB-0143

NORAD 47289 · 2020-100AH

PAYLOAD ACTIVE UNKNOWN

§ Identity

Operator
Country
UK
Launch date
2020-12-18
Launch site
VOSTO
Launch vehicle
Mass (kg)
RCS (m²)

Purposes: comms

External: N2YO · Heavens-Above · Gunter

§ Orbital elements

Epoch: 2026-09-20T00:07:29.002656Z

Period
109.72 min
Inclination
87.8979°
Eccentricity
0.0001820
Mean motion
13.12444651 rev/d
Perigee alt
1,212.3 km
Apogee alt
1,215.1 km
Semi-major
7,591.9 km
B*
-6.2898e-4
RAAN
331.8429°
Arg perigee
102.8864°
Mean anomaly
257.2468°
Rev number
27,708

§ Raw data

ONEWEB-01431 47289U 20100AH  26263.00519679 -.00000214  00000+0 -62898-3 0  99932 47289  87.8979 331.8429 0001820 102.8864 257.2468 13.12444651277089

JSON: /api/v1/satellites/47289 · /tle

For live sub-satellite position, see the globe view (requires WebGL).

§ Visibility from observer

Set your observer location to see the next 7 days of passes ≥ 10°. The values pass through the URL so the page stays shareable.

No JS? Fill the form by hand. The geolocation button needs JavaScript.